Weather in Billings

United States     45°46′58″N   108°30′15″W
temp.,
°C
wind,
m/s
gust,
m/s
humid.,
%
clouds,
%
prec.,
mm/h
press.,
hPa
HPBL,
m
18 may, tue
tue1800:00+15sw22500 0.0 100411
03:00+13sw33515 0.0 100412
06:00+12sw22650 0.0 100410
09:00+21sw47440 0.0 1004396
12:00+26wsw58245 0.0 10022016
15:00+28sw36205 0.0 9993556
18:00+25nw473190 0.0 999351
21:00+15nne8127119 0.3 1007437
19 may, wed
wed1900:00+11nne13564 0.3 101069
03:00+10ese335537 0.0 101233
06:00+9e354818 0.0 1013131
09:00+13ene910390 0.0 10121030
12:00+17e89345 0.0 10101507
15:00+20e9103485 0.0 10061947
18:00+17ese61150100 0.2 1004610
21:00+12ese71380100 0.6 1007453
20 may, thu
thu2000:00+11ene4991100 1.6 1008362
03:00+10ene4883100 0.4 1007493
06:00+10ne4688100 0.8 1007613
09:00+9nne71068100 0.2 1010751
12:00+8nne6866100 0.4 1012758
15:00+9nne6767100 0.1 1011873
18:00+6nnw71079100 0.3 1013805
21:00+3n61087100 0.6 1018539
21 may, fri
fri2100:00+3n5688100 0.7 1019539
03:00+2nne5791100 0.4 1019484
06:00+2nne2389100 0.5 1020435
09:00+2n3286100 0.0 1022513
12:00+4ne3381100 0.0 1022629
15:00+5ne5679100 0.1 1022852
18:00+5ne5679100 0.1 1023937
21:00+4nne4683100 0.0 1024627
22 may, sat
sat2200:00+3nne4687100 0.0 1026486
03:00+3ne2388100 0.0 1026371
06:00+2ene2488100 0.0 1025370
09:00+3ene3485100 0.0 1025498
12:00+8e457199 0.0 1022775
15:00+14e555775 0.0 10171127
18:00+16e775848 0.0 10151174
21:00+12ene61073100 0.0 1016377